Total_Precipitation_Accumulation
0.52 0.53 0.52 0.52 0.52 0.54 0.60 0.61 0.64 0.65 0.67 0.68 0.71 0.74 0.79 0.83 0.88 0.91 0.96 1.05 1.09 1.12 1.17 1.28 1.36 1.47 1.43 1.28 1.24 1.28 1.38 1.47 1.28 1.31 1.27 1.03 0.88 0.76 0.67 0.57 0.41 0.32 0.27
0.47 0.48 0.50 0.48 0.45 0.46 0.48 0.49 0.52 0.55 0.58 0.59 0.62 0.65 0.69 0.75 0.83 0.92 0.98 1.04 1.05 1.06 1.09 1.18 1.22 1.28 1.33 1.27 1.14 1.08 1.21 1.34 1.30 1.31 1.46 1.36 1.06 0.86 0.78 0.66 0.48 0.37 0.36
0.47 0.47 0.44 0.47 0.48 0.45 0.39 0.38 0.38 0.43 0.49 0.48 0.48 0.51 0.56 0.65 0.76 0.83 0.87 0.91 0.99 1.07 1.05 1.04 1.05 1.09 1.24 1.33 1.27 1.19 1.18 1.27 1.35 1.33 1.43 1.49 1.23 0.96 0.90 0.79 0.66 0.64 0.43
0.43 0.42 0.41 0.40 0.40 0.42 0.40 0.37 0.35 0.36 0.41 0.44 0.45 0.49 0.53 0.59 0.65 0.69 0.69 0.69 0.71 0.81 0.85 0.84 0.82 0.83 0.97 1.20 1.26 1.32 1.30 1.23 1.28 1.32 1.42 1.49 1.45 1.20 1.06 0.96 0.90 0.82 0.66
0.45 0.42 0.41 0.40 0.37 0.34 0.32 0.30 0.30 0.30 0.29 0.34 0.38 0.45 0.50 0.52 0.49 0.51 0.54 0.50 0.50 0.49 0.51 0.55 0.58 0.61 0.62 0.73 0.93 1.13 1.24 1.26 1.24 1.26 1.32 1.41 1.38 1.31 1.10 0.98 0.95 0.97 0.92
0.36 0.34 0.37 0.38 0.37 0.36 0.31 0.27 0.26 0.26 0.28 0.32 0.35 0.36 0.38 0.38 0.41 0.41 0.41 0.39 0.36 0.35 0.34 0.34 0.34 0.36 0.39 0.47 0.55 0.72 0.91 1.07 1.24 1.30 1.28 1.30 1.32 1.31 1.24 1.11 1.03 0.97 1.04
0.28 0.30 0.33 0.37 0.40 0.38 0.29 0.26 0.25 0.25 0.28 0.31 0.33 0.34 0.34 0.36 0.33 0.32 0.34 0.31 0.29 0.29 0.30 0.30 0.23 0.21 0.25 0.31 0.36 0.41 0.52 0.63 0.77 1.02 1.18 1.17 1.15 1.17 1.25 1.25 1.19 1.16 1.19
0.31 0.36 0.38 0.38 0.41 0.41 0.35 0.32 0.31 0.31 0.32 0.34 0.35 0.34 0.34 0.34 0.30 0.26 0.25 0.23 0.27 0.30 0.27 0.27 0.24 0.21 0.21 0.26 0.30 0.32 0.30 0.32 0.42 0.54 0.64 0.70 0.79 0.93 1.08 1.22 1.32 1.37 1.46
0.37 0.41 0.42 0.43 0.44 0.44 0.43 0.43 0.44 0.45 0.38 0.34 0.36 0.39 0.39 0.38 0.32 0.27 0.24 0.23 0.27 0.30 0.27 0.26 0.27 0.23 0.21 0.19 0.24 0.30 0.28 0.26 0.29 0.36 0.42 0.51 0.58 0.65 0.73 0.86 0.99 1.18 1.48
0.36 0.38 0.37 0.42 0.48 0.50 0.52 0.54 0.55 0.55 0.48 0.42 0.40 0.42 0.43 0.43 0.36 0.26 0.23 0.26 0.32 0.34 0.31 0.28 0.27 0.26 0.22 0.18 0.21 0.26 0.28 0.26 0.25 0.28 0.32 0.35 0.37 0.40 0.43 0.50 0.59 0.78 1.04
0.38 0.39 0.40 0.44 0.49 0.53 0.61 0.66 0.69 0.66 0.63 0.57 0.52 0.50 0.51 0.46 0.38 0.24 0.23 0.28 0.36 0.42 0.38 0.34 0.31 0.29 0.23 0.21 0.22 0.25 0.25 0.27 0.30 0.31 0.34 0.38 0.37 0.34 0.33 0.34 0.38 0.44 0.57
0.43 0.43 0.43 0.48 0.41 0.42 0.62 0.71 0.77 0.78 0.73 0.67 0.66 0.62 0.59 0.55 0.43 0.32 0.25 0.28 0.35 0.48 0.50 0.46 0.39 0.34 0.29 0.26 0.25 0.24 0.24 0.25 0.28 0.33 0.35 0.38 0.40 0.36 0.32 0.32 0.33 0.37 0.42
0.54 0.56 0.56 0.54 0.55 0.60 0.69 0.75 0.77 0.79 0.78 0.72 0.74 0.73 0.71 0.69 0.60 0.39 0.31 0.31 0.33 0.46 0.52 0.52 0.46 0.36 0.34 0.31 0.32 0.29 0.24 0.23 0.26 0.30 0.33 0.36 0.35 0.33 0.31 0.33 0.36 0.38 0.39
0.63 0.64 0.68 0.72 0.71 0.72 0.82 0.85 0.83 0.82 0.83 0.79 0.79 0.78 0.78 0.78 0.74 0.63 0.50 0.43 0.42 0.41 0.46 0.51 0.50 0.42 0.37 0.37 0.38 0.35 0.28 0.26 0.28 0.27 0.31 0.37 0.38 0.35 0.33 0.31 0.32 0.35 0.38
0.70 0.68 0.72 0.80 0.87 0.88 0.87 0.86 0.83 0.85 0.78 0.76 0.78 0.78 0.79 0.77 0.69 0.63 0.63 0.61 0.57 0.52 0.55 0.62 0.63 0.54 0.45 0.42 0.42 0.41 0.39 0.34 0.30 0.30 0.31 0.38 0.41 0.39 0.36 0.34 0.31 0.29 0.29
0.80 0.75 0.74 0.76 0.82 0.85 0.85 0.73 0.60 0.57 0.50 0.47 0.51 0.56 0.59 0.55 0.53 0.52 0.51 0.52 0.54 0.58 0.60 0.64 0.69 0.70 0.62 0.52 0.47 0.48 0.47 0.41 0.34 0.31 0.33 0.37 0.39 0.37 0.36 0.36 0.34 0.30 0.30
0.80 0.79 0.77 0.76 0.80 0.82 0.82 0.79 0.71 0.61 0.53 0.47 0.45 0.44 0.45 0.46 0.49 0.49 0.50 0.52 0.53 0.57 0.60 0.63 0.68 0.71 0.71 0.66 0.57 0.51 0.50 0.44 0.38 0.35 0.35 0.38 0.38 0.37 0.36 0.35 0.33 0.31 0.30
0.72 0.72 0.72 0.73 0.74 0.76 0.77 0.80 0.83 0.78 0.72 0.65 0.56 0.49 0.42 0.39 0.43 0.47 0.51 0.55 0.54 0.50 0.54 0.61 0.69 0.69 0.71 0.68 0.61 0.57 0.53 0.47 0.42 0.39 0.38 0.39 0.38 0.37 0.37 0.35 0.31 0.28 0.28
0.71 0.70 0.69 0.69 0.69 0.68 0.72 0.79 0.83 0.81 0.80 0.78 0.71 0.59 0.50 0.45 0.44 0.48 0.50 0.52 0.51 0.47 0.49 0.59 0.66 0.68 0.65 0.60 0.55 0.55 0.48 0.43 0.40 0.39 0.39 0.40 0.38 0.36 0.36 0.36 0.33 0.30 0.26
0.75 0.73 0.78 0.76 0.70 0.67 0.71 0.79 0.82 0.82 0.82 0.83 0.81 0.67 0.54 0.51 0.51 0.52 0.50 0.49 0.47 0.45 0.47 0.56 0.64 0.65 0.61 0.56 0.52 0.46 0.43 0.41 0.39 0.38 0.37 0.36 0.35 0.33 0.32 0.33 0.32 0.28 0.25
0.82 0.75 0.73 0.72 0.71 0.69 0.74 0.81 0.86 0.84 0.80 0.79 0.77 0.61 0.52 0.51 0.50 0.48 0.46 0.46 0.44 0.40 0.45 0.55 0.60 0.60 0.57 0.51 0.46 0.41 0.38 0.37 0.37 0.35 0.34 0.33 0.31 0.29 0.29 0.29 0.29 0.26 0.22
0.89 0.83 0.73 0.69 0.68 0.72 0.77 0.81 0.85 0.79 0.72 0.73 0.71 0.57 0.48 0.47 0.47 0.43 0.40 0.40 0.37 0.35 0.40 0.48 0.52 0.54 0.49 0.43 0.39 0.37 0.35 0.33 0.34 0.33 0.32 0.30 0.28 0.26 0.25 0.26 0.27 0.26 0.23
0.86 0.84 0.79 0.71 0.65 0.67 0.72 0.76 0.75 0.69 0.65 0.63 0.62 0.55 0.48 0.48 0.44 0.37 0.36 0.35 0.34 0.35 0.35 0.40 0.42 0.41 0.38 0.34 0.33 0.32 0.32 0.29 0.29 0.30 0.30 0.27 0.26 0.24 0.22 0.22 0.22 0.23 0.22
0.80 0.80 0.79 0.71 0.61 0.60 0.65 0.71 0.69 0.66 0.64 0.60 0.52 0.46 0.45 0.45 0.41 0.34 0.33 0.33 0.33 0.32 0.31 0.32 0.30 0.29 0.29 0.30 0.31 0.31 0.28 0.25 0.24 0.26 0.25 0.23 0.23 0.21 0.18 0.18 0.18 0.19 0.22
0.74 0.75 0.76 0.71 0.61 0.56 0.63 0.70 0.69 0.63 0.57 0.52 0.45 0.41 0.39 0.37 0.36 0.35 0.35 0.34 0.31 0.30 0.26 0.25 0.25 0.24 0.24 0.24 0.26 0.26 0.22 0.20 0.20 0.20 0.20 0.19 0.18 0.17 0.15 0.15 0.15 0.18 0.20
0.74 0.72 0.70 0.66 0.60 0.54 0.58 0.64 0.63 0.57 0.53 0.46 0.38 0.37 0.37 0.35 0.34 0.33 0.34 0.33 0.30 0.27 0.24 0.22 0.21 0.20 0.19 0.21 0.21 0.17 0.14 0.14 0.15 0.16 0.15 0.15 0.14 0.13 0.12 0.12 0.12 0.13 0.14